COSMOS 2251 DEB, 34117

Orbit data source: Space-Track

COSMOS 2251 DEB, 34117 is space debris in LEO originally from a launch on Wed, 16 Jun 1993 UTC launched from the Plesetsk Missile And Space Complex (PKMTR). The debris from Iridium 33, an American commercial communications satellite, has been tracked extensively since its accidental collision with the defunct Russian satellite Cosmos 2251 in 2009. This event, occurring at high speed in low Earth orbit (LEO), generated thousands of pieces of space debris, significantly increasing the risk of further collisions. The Iridium 33 debris cloud has impacted space traffic management and orbital debris mitigation strategies, making it a subject of ongoing study in space situational awareness.

Loading next visibility...
Identifier
34117, 1993-036KN
Orbit
LEO
Country
Flag of CISCIS
Related business
Manufacturer
Unknown
Mission
Spacecraft
Bus & Motor
Unknown
Mass
Unknown
Launch date (UTC)
1993-06-16 (33 years ago)
Launch vehicle
Unknown
Launch site
Plesetsk Missile And Space Complex (PKMTR)
Object type
Payload
Rocket body
Debris
Shape & HBR
Unknown shape, 0.1 m
Radar Cross Section
Small (<0.1 m²)

Expand to show TLE details & history
Last TLE update: 9 hours ago

TLE from 9 hours ago
0 COSMOS 2251 DEB
1 34117U 93036KN  26034.03763725  .00001470  00000-0  46391-3 0  9993
2 34117  74.0374 247.1861 0056536 311.4471  48.1835 14.40276679888760
Epoch: 2026-02-03T00:54Z
TLE epoch observation values (Epoch: 2026-02-03T00:54:11.858Z)
Latitude
0.00001°
Longitude
100.41238°
Altitude
733.426 km
Speed
7.503 km/s
True Right ascension
16h 28m 44s
True Declination
0° 00' 00"
Sunlit
Object was in daylight at epoch
Visualization orbit readout
Latitude
Unknown
Longitude
Unknown
Altitude
Unknown
Speed
Unknown
Apparent Right ascension
Unknown
Apparent Declination
Unknown
Sunlit
N/A
Visualization observer readout
Local Sidereal Time
11:43:08
Azimuth
Unknown
Elevation
Unknown
Doppler factor
Unknown
Orbital elements
Apogee altitude
795.533 km
Perigee altitude
714.874 km
Semi-major axis
7,133.341 km
Eccentricity
0.00565
Inclination
74.0374°
RAAN
247.1861°
Arg. of periapsis
311.4471°
True anomaly
48.66862°
Mean anomaly
48.1835°
Eccentric anomaly
48.42583°
Mean motion
3.6025 °/min
Orbital period
99.93 mins
BSTAR
0.00046391
Loading maneuver chart data...
Computing Atmospheric mass density...

Documentation

Showing up to 5 results
|